When you browse on this site, cookies collect data to enhance your experience and personalize the content and advertising you see.
Visit our Privacy Policy to learn more. By continuing to use the site, you agree to this use of cookies and data.
  • In Romania
  • List of Countries
  • For 7 days
  • Water Temperature
  • Satellite Maps
  • Weather Map
  • Weather Widgets
  • user-avatar
    Login

    Hourly Weather Miskolc

    Today, 22 March, Friday

    Time Temperature Precipitation Wind Pressure Humidity
    00:00 +7°C° 0 mm 0 mps 760 mmHg 56%
    01:00 +6°C° 0 mm 0 mps 760 mmHg 57%
    02:00 +7°C° 0 mm 1 mps 760 mmHg 59%
    03:00 +7°C° 0 mm 1 mps 760 mmHg 61%
    04:00 +6°C° 0 mm 1 mps 760 mmHg 63%
    05:00 +7°C° 0 mm 1 mps 760 mmHg 63%
    06:00 +7°C° 0 mm 1 mps 760 mmHg 64%
    07:00 +8°C° 0 mm 1 mps 760 mmHg 65%
    08:00 +9°C° 0 mm 0 mps 760 mmHg 58%
    09:00 +11°C° 0 mm 0 mps 760 mmHg 51%
    10:00 +13°C° 0 mm 0 mps 760 mmHg 45%
    11:00 +14°C° 0 mm 0 mps 760 mmHg 44%
    12:00 +15°C° 0 mm 0 mps 760 mmHg 43%
    13:00 +16°C° 0 mm 0 mps 760 mmHg 41%
    14:00 +18°C° 0 mm 1 mps 759 mmHg 46%
    15:00 +16°C° 0 mm 1 mps 759 mmHg 50%
    16:00 +16°C° 0 mm 2 mps 758 mmHg 55%
    17:00 +15°C° 0 mm 2 mps 758 mmHg 61%
    18:00 +14°C° 0 mm 2 mps 758 mmHg 68%
    19:00 +12°C° 0 mm 2 mps 758 mmHg 74%
    20:00 +12°C° 0 mm 2 mps 758 mmHg 76%
    21:00 +10°C° 0 mm 2 mps 759 mmHg 78%
    22:00 +10°C° 0 mm 2 mps 759 mmHg 80%
    23:00 +9°C° 0 mm 2 mps 759 mmHg 83%

    Tomorrow, 23 March, Saturday

    Time Temperature Precipitation Wind Pressure Humidity
    00:00 +9°C° 0 mm 2 mps 759 mmHg 86%
    01:00 +8°C° 0 mm 2 mps 758 mmHg 89%
    02:00 +7°C° 0 mm 2 mps 758 mmHg 89%
    03:00 +7°C° 0 mm 2 mps 758 mmHg 89%
    04:00 +7°C° 0 mm 2 mps 757 mmHg 90%
    05:00 +7°C° 0 mm 2 mps 758 mmHg 87%
    06:00 +7°C° 0 mm 2 mps 758 mmHg 84%
    07:00 +9°C° 0 mm 1 mps 758 mmHg 81%
    08:00 +11°C° 0 mm 1 mps 757 mmHg 72%
    09:00 +13°C° 0 mm 1 mps 757 mmHg 62%
    10:00 +15°C° 0 mm 1 mps 757 mmHg 52%
    11:00 +16°C° 0 mm 1 mps 757 mmHg 48%
    12:00 +18°C° 0 mm 1 mps 756 mmHg 44%
    13:00 +19°C° 0 mm 1 mps 756 mmHg 40%
    14:00 +19°C° 0 mm 1 mps 756 mmHg 40%
    15:00 +17°C° 0 mm 0 mps 755 mmHg 39%
    16:00 +17°C° 0 mm 0 mps 755 mmHg 39%
    17:00 +16°C° 0 mm 0 mps 755 mmHg 43%
    18:00 +14°C° 0 mm 0 mps 755 mmHg 48%
    19:00 +13°C° 0 mm 0 mps 755 mmHg 52%
    20:00 +13°C° 0 mm 1 mps 755 mmHg 54%
    21:00 +13°C° 0 mm 1 mps 755 mmHg 56%
    22:00 +12°C° 0 mm 1 mps 755 mmHg 59%
    23:00 +12°C° 0 mm 1 mps 755 mmHg 62%

    Day after tomorrow, 24 March, Sunday

    Time Temperature Precipitation Wind Pressure Humidity
    00:00 +10°C° 0 mm 0 mps 755 mmHg 66%
    01:00 +10°C° 0 mm 0 mps 754 mmHg 69%
    02:00 +10°C° 0 mm 0 mps 754 mmHg 71%
    03:00 +9°C° 0 mm 0 mps 754 mmHg 73%
    04:00 +9°C° 0 mm 0 mps 754 mmHg 75%
    05:00 +9°C° 0 mm 0 mps 754 mmHg 74%
    06:00 +10°C° 0 mm 0 mps 754 mmHg 73%
    07:00 +10°C° 0 mm 0 mps 754 mmHg 72%
    08:00 +12°C° 0 mm 0 mps 754 mmHg 66%
    09:00 +15°C° 0 mm 1 mps 754 mmHg 59%
    10:00 +18°C° 0 mm 1 mps 754 mmHg 53%
    11:00 +19°C° 0 mm 1 mps 754 mmHg 51%
    12:00 +18°C° 0 mm 2 mps 753 mmHg 49%
    13:00 +19°C° 0 mm 2 mps 753 mmHg 47%
    14:00 +18°C° 0.1 mm 2 mps 753 mmHg 50%
    15:00 +17°C° 0.1 mm 3 mps 752 mmHg 54%
    16:00 +17°C° 0.1 mm 3 mps 752 mmHg 58%
    17:00 +14°C° 0.1 mm 4 mps 752 mmHg 63%
    18:00 +13°C° 0.1 mm 4 mps 752 mmHg 68%
    19:00 +10°C° 0.1 mm 5 mps 752 mmHg 73%
    20:00 +10°C° 0.5 mm 5 mps 752 mmHg 70%
    21:00 +9°C° 0.5 mm 5 mps 753 mmHg 67%
    22:00 +9°C° 0.5 mm 5 mps 753 mmHg 63%
    23:00 +8°C° 0 mm 4 mps 753 mmHg 61%

    25 March, Monday

    Time Temperature Precipitation Wind Pressure Humidity
    00:00 +8°C° 0 mm 4 mps 753 mmHg 58%
    01:00 +7°C° 0 mm 4 mps 753 mmHg 55%
    02:00 +6°C° 0 mm 4 mps 753 mmHg 57%
    03:00 +6°C° 0 mm 4 mps 753 mmHg 59%
    04:00 +5°C° 0 mm 3 mps 753 mmHg 61%
    05:00 +5°C° 0 mm 3 mps 753 mmHg 61%
    06:00 +5°C° 0 mm 4 mps 754 mmHg 60%
    07:00 +5°C° 0 mm 4 mps 754 mmHg 60%
    08:00 +6°C° 0 mm 4 mps 754 mmHg 55%
    09:00 +8°C° 0 mm 3 mps 754 mmHg 51%
    10:00 +10°C° 0 mm 3 mps 754 mmHg 47%
    11:00 +10°C° 0 mm 3 mps 753 mmHg 45%
    12:00 +11°C° 0 mm 3 mps 753 mmHg 44%
    13:00 +12°C° 0 mm 2 mps 752 mmHg 42%
    14:00 +12°C° 0 mm 2 mps 752 mmHg 43%
    15:00 +12°C° 0 mm 2 mps 752 mmHg 44%
    16:00 +12°C° 0 mm 1 mps 751 mmHg 45%
    17:00 +10°C° 0.1 mm 2 mps 751 mmHg 49%
    18:00 +9°C° 0.1 mm 2 mps 751 mmHg 53%
    19:00 +9°C° 0.1 mm 2 mps 751 mmHg 56%
    20:00 +8°C° 0 mm 2 mps 751 mmHg 60%
    21:00 +8°C° 0 mm 1 mps 751 mmHg 63%
    22:00 +7°C° 0 mm 1 mps 751 mmHg 67%
    23:00 +6°C° 0 mm 2 mps 751 mmHg 67%

    26 March, Tuesday

    Time Temperature Precipitation Wind Pressure Humidity
    00:00 +5°C° 0 mm 2 mps 750 mmHg 67%
    01:00 +4°C° 0 mm 3 mps 750 mmHg 67%
    02:00 +4°C° 0.1 mm 3 mps 750 mmHg 68%
    03:00 +4°C° 0.1 mm 3 mps 750 mmHg 69%
    04:00 +4°C° 0.1 mm 3 mps 750 mmHg 71%
    05:00 +4°C° 0 mm 3 mps 751 mmHg 67%
    06:00 +3°C° 0 mm 3 mps 751 mmHg 63%
    07:00 +3°C° 0 mm 3 mps 752 mmHg 59%
    08:00 +4°C° 0.1 mm 4 mps 752 mmHg 54%
    09:00 +5°C° 0.1 mm 5 mps 752 mmHg 49%
    10:00 +5°C° 0.1 mm 6 mps 753 mmHg 44%
    11:00 +7°C° 0.2 mm 6 mps 753 mmHg 42%
    12:00 +6°C° 0.2 mm 7 mps 753 mmHg 41%
    13:00 +8°C° 0.2 mm 7 mps 753 mmHg 39%
    14:00 +8°C° 0.1 mm 7 mps 754 mmHg 40%
    15:00 +8°C° 0.1 mm 7 mps 754 mmHg 41%
    16:00 +6°C° 0.1 mm 7 mps 754 mmHg 42%
    17:00 +5°C° 0 mm 6 mps 755 mmHg 49%
    18:00 +5°C° 0 mm 4 mps 755 mmHg 55%
    19:00 +4°C° 0 mm 3 mps 756 mmHg 61%
    20:00 +3°C° 0 mm 3 mps 756 mmHg 65%
    21:00 +4°C° 0 mm 2 mps 757 mmHg 68%
    22:00 +3°C° 0 mm 2 mps 757 mmHg 71%
    23:00 +3°C° 0 mm 2 mps 757 mmHg 73%

    27 March, Wednesday

    Time Temperature Precipitation Wind Pressure Humidity
    00:00 +3°C° 0 mm 2 mps 757 mmHg 74%
    01:00 +2°C° 0 mm 2 mps 758 mmHg 76%
    02:00 +2°C° 0 mm 2 mps 757 mmHg 77%
    03:00 +2°C° 0 mm 2 mps 757 mmHg 77%
    04:00 +1°C° 0 mm 2 mps 757 mmHg 78%
    05:00 +2°C° 0 mm 2 mps 757 mmHg 74%
    06:00 +3°C° 0 mm 2 mps 758 mmHg 70%
    07:00 +4°C° 0 mm 1 mps 758 mmHg 67%
    08:00 +5°C° 0 mm 2 mps 758 mmHg 58%
    09:00 +7°C° 0 mm 2 mps 758 mmHg 50%
    10:00 +9°C° 0 mm 2 mps 758 mmHg 41%
    11:00 +9°C° 0 mm 2 mps 758 mmHg 38%
    12:00 +10°C° 0 mm 2 mps 757 mmHg 36%
    13:00 +12°C° 0 mm 2 mps 757 mmHg 33%
    14:00 +12°C° 0 mm 2 mps 757 mmHg 34%
    15:00 +12°C° 0 mm 1 mps 757 mmHg 34%
    16:00 +12°C° 0 mm 1 mps 757 mmHg 34%
    17:00 +11°C° 0 mm 1 mps 757 mmHg 39%
    18:00 +10°C° 0 mm 1 mps 758 mmHg 45%
    19:00 +9°C° 0 mm 1 mps 758 mmHg 50%
    20:00 +8°C° 0 mm 1 mps 758 mmHg 55%
    21:00 +7°C° 0 mm 1 mps 758 mmHg 59%
    22:00 +7°C° 0 mm 1 mps 759 mmHg 64%
    23:00 +6°C° 0 mm 1 mps 759 mmHg 66%
    Show more